sat.trackr.live / text

‹ back to catalog

STARLINK-5372

NORAD 54838 · 2022-177U

PAYLOAD ACTIVE UNKNOWN

§ Identity

Operator
Country
US
Launch date
2022-12-28
Launch site
AFETR
Launch vehicle
Mass (kg)
RCS (m²)

Purposes: comms

External: N2YO · Heavens-Above · Gunter

§ Orbital elements

Epoch: 2026-09-20T22:49:39.277920Z

Period
94.27 min
Inclination
43.0021°
Eccentricity
0.0001010
Mean motion
15.27576647 rev/d
Perigee alt
482.4 km
Apogee alt
483.8 km
Semi-major
6,861.2 km
B*
5.8059e-6
RAAN
110.1262°
Arg perigee
248.3330°
Mean anomaly
111.7415°
Rev number
20,682

§ Raw data

STARLINK-53721 54838U 22177U   26263.95114905 -.00000102  00000+0  58059-5 0  99952 54838  43.0021 110.1262 0001010 248.3330 111.7415 15.27576647206826

JSON: /api/v1/satellites/54838 · /tle

For live sub-satellite position, see the globe view (requires WebGL).

§ Visibility from observer

Set your observer location to see the next 7 days of passes ≥ 10°. The values pass through the URL so the page stays shareable.

No JS? Fill the form by hand. The geolocation button needs JavaScript.